This is the latest recevied weather packets stored in our database for station/object VU3ZAG-13. If no packets are shown the sender has not sent any weather packets the latest 1 day(s).
| Time | Temp. | Humidity | Pressure | Rain* | Wind** | Luminosity | Snow |
|---|---|---|---|---|---|---|---|
| 1836274579 | 27.78° C | 61% | - | 0.25 mm | 3.13 m/s, 274° | - | - |
| 1836274447 | 27.22° C | 61% | - | 0.25 mm | 2.24 m/s, 269° | - | - |
| 1836274271 | 27.78° C | 62% | - | 0.25 mm | 2.68 m/s, 308° | - | - |
| 1836274138 | 27.78° C | 61% | - | 0.25 mm | 2.24 m/s, 279° | - | - |
| 1778041517 | 31.67° C | 46% | - | 0 mm | 0.89 m/s, 339° | - | - |
| 1778041209 | 31.67° C | 46% | - | 0 mm | 0.45 m/s, 205° | - | - |
| 1778040900 | 31.67° C | 47% | - | 0 mm | 0.45 m/s, 302° | - | - |
| 1778040591 | 31.67° C | 48% | - | 0 mm | 0.45 m/s, 232° | - | - |
| 1778040283 | 31.67° C | 48% | - | 0 mm | 0.89 m/s, 281° | - | - |
| 1778039974 | 31.67° C | 47% | - | 0 mm | 0.89 m/s, 344° | - | - |
| 1778039666 | 31.67° C | 47% | - | 0 mm | 0.45 m/s, 341° | - | - |
| 1778039357 | 31.67° C | 47% | - | 0 mm | 1.34 m/s, 254° | - | - |
| 1778039048 | 31.67° C | 48% | - | 0 mm | 0.89 m/s, 289° | - | - |
| 1778038740 | 31.11° C | 48% | - | 0 mm | 0.45 m/s, 335° | - | - |
| 1778038431 | 31.11° C | 49% | - | 0 mm | 0.89 m/s, 338° | - | - |
| 1778038122 | 31.11° C | 50% | - | 0 mm | 0.45 m/s, 15° | - | - |
| 1778037813 | 31.11° C | 50% | - | 0 mm | 0.89 m/s, 262° | - | - |
| 1778037195 | 31.67° C | 50% | - | 0 mm | 1.34 m/s, 269° | - | - |
| 1778036897 | 31.67° C | 45% | - | 0 mm | 1.79 m/s, 252° | - | - |
| 1778036578 | 31.11° C | 45% | - | 0 mm | 0.89 m/s, 344° | - | - |
| 1778036270 | 31.11° C | 45% | - | 0 mm | 2.24 m/s, 260° | - | - |
| 1778035962 | 31.11° C | 46% | - | 0 mm | 1.34 m/s, 310° | - | - |
| 1778035653 | 31.11° C | 46% | - | 0 mm | 1.34 m/s, 307° | - | - |
| 1778035344 | 31.11° C | 46% | - | 0 mm | 1.34 m/s, 277° | - | - |
| 1778035035 | 31.11° C | 46% | - | 0 mm | 0.89 m/s, 339° | - | - |
* Rain since midnight (hover to see other rain measurements)
** Current wind speed in m/s (hover to see current wind gust speed)